DW9864 Weather Reports


time (UTC)temp
C
wind
direction
speed
KPH
gust
KPH
rain 1hr
cm
rain 24hr
cm
rain mn
cm
humidity
%
barometer
mb
20260506164003 13 200 3.2 8.0 0.00 0.56 0.53 79 1014.6
20260506163503 13 192 3.2 6.4 0.00 0.56 0.53 79 1014.8
20260506163003 13 237 1.6 6.4 0.00 0.56 0.53 79 1014.8
20260506162503 13 277 1.6 8.0 0.00 0.56 0.53 79 1014.9
20260506162003 14 261 1.6 8.0 0.00 0.56 0.53 77 1014.9
20260506161517 14 272 3.2 12.9 0.00 0.56 0.53 77 1014.9
20260506161003 14 299 3.2 12.9 0.00 0.56 0.53 76 1014.8
20260506160503 15 294 3.2 6.4 0.00 0.56 0.53 77 1014.8
20260506160003 14 287 3.2 9.7 0.00 0.56 0.53 78 1014.8
20260506155503 14 285 3.2 9.7 0.00 0.56 0.53 77 1014.9
20260506155003 14 287 3.2 8.0 0.00 0.56 0.53 77 1015.0
20260506154503 14 317 3.2 9.7 0.00 0.56 0.53 76 1014.9
20260506154003 15 300 3.2 9.7 0.00 0.58 0.53 75 1015.1
20260506153503 15 299 3.2 6.4 0.00 0.61 0.53 76 1015.0
20260506153003 14 223 3.2 9.7 0.00 0.61 0.53 79 1015.0
20260506152503 14 202 3.2 9.7 0.00 0.64 0.53 81 1014.9
20260506152017 14 216 3.2 8.0 0.00 0.64 0.53 82 1014.9
20260506151503 13 215 3.2 9.7 0.00 0.64 0.53 81 1015.0
20260506151003 13 215 4.8 12.9 0.00 0.64 0.53 81 1015.0
20260506150503 13 216 4.8 12.9 0.00 0.64 0.53 81 1015.0
20260506150003 13 219 3.2 8.0 0.00 0.66 0.53 82 1015.0
20260506145517 13 207 3.2 8.0 0.00 0.66 0.53 82 1015.0
20260506145017 13 223 3.2 9.7 0.00 0.69 0.53 81 1015.1
20260506144503 13 256 3.2 9.7 0.00 0.71 0.53 81 1015.1
20260506144003 13 262 3.2 11.3 0.00 0.71 0.53 80 1015.1
20260506143517 13 258 3.2 11.3 0.00 0.71 0.53 81 1015.2
20260506143003 13 249 3.2 11.3 0.00 0.71 0.53 80 1015.2
20260506142503 13 239 4.8 11.3 0.00 0.71 0.53 80 1015.1
20260506142017 13 216 3.2 9.7 0.00 0.71 0.53 82 1015.2
20260506141503 13 196 1.6 9.7 0.00 0.71 0.53 82 1015.2
20260506141003 13 182 3.2 8.0 0.00 0.71 0.53 85 1015.2
20260506140503 13 203 3.2 9.7 0.03 0.74 0.53 84 1015.3
20260506140003 13 234 3.2 9.7 0.03 0.76 0.53 85 1015.4
20260506135503 13 270 4.8 12.9 0.03 0.76 0.53 85 1015.4
20260506135017 13 288 4.8 12.9 0.03 0.79 0.53 86 1015.3
20260506134503 13 289 4.8 14.5 0.03 0.79 0.53 86 1015.4
20260506133517 13 193 3.2 11.3 0.03 0.84 0.53 87 1015.4
20260506133003 13 205 3.2 9.7 0.03 0.86 0.53 87 1015.2
20260506132503 12 193 3.2 12.9 0.03 0.89 0.53 87 1015.2
20260506132003 12 172 6.4 14.5 0.05 0.89 0.53 87 1015.2
20260506131503 12 169 3.2 14.5 0.05 0.89 0.53 88 1015.2
20260506131003 12 173 3.2 16.1 0.05 0.89 0.53 89 1015.2
20260506130503 12 170 4.8 16.1 0.05 0.89 0.51 89 1015.1
20260506130003 12 164 4.8 12.9 0.05 0.91 0.51 89 1015.1
20260506125503 12 160 3.2 12.9 0.05 0.94 0.51 89 1015.1
20260506125003 12 159 3.2 14.5 0.05 0.94 0.51 89 1015.0
20260506124503 12 151 3.2 14.5 0.05 0.97 0.51 89 1015.0
20260506124017 12 171 3.2 8.0 0.05 0.97 0.51 89 1015.0
20260506123503 12 191 4.8 9.7 0.05 0.99 0.51 89 1015.0
20260506123003 12 184 4.8 9.7 0.05 0.99 0.51 88 1015.0
20260506122517 12 161 4.8 12.9 0.05 0.99 0.51 88 1015.0
20260506122003 12 177 4.8 12.9 0.03 1.04 0.51 87 1015.0
20260506121503 12 226 4.8 12.9 0.03 1.12 0.51 85 1015.0
20260506121003 12 230 6.4 12.9 0.00 1.09 0.48 85 1015.0
20260506120503 13 219 6.4 16.1 0.00 1.09 0.48 84 1015.0
20260506120003 13 190 6.4 16.1 0.00 1.09 0.48 84 1014.9
20260506115517 13 164 3.2 12.9 0.00 1.09 0.48 83 1014.9
20260506115003 13 163 1.6 11.3 0.00 1.09 0.48 83 1014.8
20260506114503 13 159 1.6 8.0 0.00 1.09 0.48 83 1014.8
20260506114003 13 157 3.2 9.7 0.00 1.09 0.48 84 1014.9
20260506113503 13 157 3.2 9.7 0.00 1.09 0.48 83 1014.9
20260506113003 13 155 3.2 9.7 0.00 1.09 0.48 82 1014.9
20260506112503 13 162 3.2 9.7 0.00 1.09 0.48 82 1015.0
20260506112003 13 176 3.2 9.7 0.00 1.09 0.48 81 1014.9
20260506111517 13 170 3.2 9.7 0.00 1.09 0.48 81 1014.8
20260506111003 13 161 4.8 11.3 0.00 1.09 0.48 80 1014.7
20260506110503 14 156 6.4 12.9 0.00 1.09 0.48 81 1014.6
20260506110003 13 156 6.4 12.9 0.00 1.09 0.48 79 1014.6
20260506105503 13 167 4.8 11.3 0.00 1.09 0.48 79 1014.5
20260506105017 13 185 4.8 17.7 0.00 1.09 0.48 79 1014.6
20260506104503 13 180 6.4 17.7 0.00 1.09 0.48 79 1014.6
20260506104003 13 164 4.8 11.3 0.00 1.09 0.48 80 1014.5
20260506103503 13 161 3.2 11.3 0.00 1.09 0.48 80 1014.5
20260506103003 13 188 3.2 11.3 0.00 1.09 0.48 80 1014.5
20260506102503 13 204 3.2 12.9 0.00 1.09 0.48 81 1014.6
20260506102017 13 219 4.8 12.9 0.00 1.09 0.48 81 1014.6
20260506101503 13 190 4.8 17.7 0.00 1.09 0.48 83 1014.5
20260506101003 13 186 4.8 17.7 0.00 1.09 0.48 83 1014.5
20260506100503 13 197 3.2 11.3 0.03 1.09 0.48 85 1014.6
20260506100017 12 173 4.8 14.5 0.05 1.09 0.48 85 1014.6
20260506095503 12 169 4.8 14.5 0.05 1.09 0.48 86 1014.5
20260506095003 12 166 6.4 12.9 0.05 1.09 0.48 86 1014.6
20260506094503 12 161 8.0 19.3 0.05 1.09 0.48 86 1014.6
20260506094003 12 160 4.8 19.3 0.05 1.09 0.48 87 1014.5
20260506093503 12 158 1.6 9.7 0.05 1.09 0.48 88 1014.5
20260506093017 12 153 3.2 9.7 0.05 1.09 0.48 87 1014.5
20260506092503 12 151 4.8 11.3 0.05 1.09 0.48 87 1014.6
20260506092003 12 163 3.2 11.3 0.05 1.09 0.48 87 1014.6
20260506091517 12 177 3.2 8.0 0.05 1.09 0.48 87 1014.6
20260506091003 12 173 3.2 9.7 0.05 1.09 0.48 87 1014.5
20260506090503 12 219 3.2 11.3 0.05 1.09 0.46 87 1014.5
20260506090003 12 290 1.6 11.3 0.05 1.07 0.43 87 1014.5
20260506085503 12 307 1.6 4.8 0.08 1.07 0.43 88 1014.3
20260506085003 12 293 1.6 8.0 0.10 1.07 0.43 88 1014.4
20260506084503 12 195 1.6 8.0 0.10 1.07 0.43 88 1014.3
20260506084003 12 192 1.6 6.4 0.10 1.07 0.43 88 1014.2
20260506083503 12 235 1.6 6.4 0.08 1.04 0.43 88 1014.3
20260506083017 11 202 1.6 8.0 0.08 1.04 0.43 89 1014.3
20260506082503 11 181 1.6 8.0 0.08 1.04 0.43 88 1014.2
20260506082003 11 245 1.6 8.0 0.08 1.04 0.43 89 1014.2
20260506081503 11 322 1.6 6.4 0.08 1.04 0.43 90 1014.3
20260506081017 11 241 1.6 6.4 0.08 1.04 0.43 90 1014.2
20260506080503 11 176 1.6 6.4 0.05 1.02 0.43 90 1014.2
20260506073503 11 111 0.0 3.2 0.00 1.02 0.33 92 1014.1
20260506073017 11 111 0.0 1.6 0.00 1.04 0.33 92 1013.9
20260506072503 11 111 0.0 3.2 0.00 1.04 0.33 92 1013.8
20260506072003 11 111 0.0 3.2 0.00 1.07 0.33 92 1013.9
20260506071503 11 111 0.0 1.6 0.00 1.07 0.33 92 1013.9
20260506071003 11 111 0.0 3.2 0.03 1.09 0.33 92 1013.9
20260506070503 11 111 0.0 3.2 0.03 1.14 0.33 92 1013.8
20260506062503 10 80 0.0 3.2 0.03 1.32 0.33 92 1013.6
20260506062017 10 80 0.0 3.2 0.03 1.37 0.33 92 1013.6
20260506061517 10 80 0.0 1.6 0.05 1.42 0.33 92 1013.5
20260506061003 10 80 0.0 3.2 0.05 1.45 0.33 91 1013.5
20260506060503 10 80 0.0 3.2 0.05 1.45 0.33 91 1013.5
20260506051003 10 127 0.0 3.2 0.28 1.40 0.28 90 1013.3
20260506050503 10 157 1.6 4.8 0.28 1.40 0.28 90 1013.3
20260506045003 10 198 1.6 3.2 0.18 1.30 0.18 89 1013.2
20260506044517 10 214 1.6 3.2 0.15 1.27 0.15 89 1013.3
20260506044017 10 268 0.0 3.2 0.15 1.27 0.15 89 1013.2
20260506043503 10 212 1.6 6.4 0.08 1.19 0.08 89 1013.2
20260506043017 10 184 3.2 8.0 0.05 1.17 0.05 89 1013.3
20260506042503 10 184 1.6 8.0 0.05 1.17 0.05 89 1013.2
20260506042003 10 327 0.0 6.4 0.03 1.14 0.03 89 1013.3
20260506041503 10 0 0.0 0.0 0.00 1.12 0.00 89 1013.3
20260506041003 10 0 0.0 0.0 0.00 1.12 0.00 89 1013.2
20260506040503 10 0 0.0 0.0 0.00 1.12 0.00 90 1013.3
20260506040003 10 0 0.0 0.0 0.00 1.12 0.00 90 1013.3
20260506035503 10 0 0.0 0.0 0.00 1.12 0.00 90 1013.3
20260506035003 10 0 0.0 0.0 0.00 1.12 0.00 90 1013.2
20260506034503 10 0 0.0 0.0 0.00 1.12 0.00 90 1013.3
20260506034003 10 0 0.0 0.0 0.00 1.12 0.00 90 1013.3
20260506033503 10 0 0.0 0.0 0.00 1.14 0.00 90 1013.4
20260506033003 10 0 0.0 0.0 0.00 1.14 0.00 89 1013.3
20260506032503 10 0 0.0 0.0 0.00 1.14 0.00 89 1013.3
20260506032003 10 0 0.0 0.0 0.00 1.14 0.00 89 1013.3
20260506031503 10 0 0.0 0.0 0.00 1.14 0.00 89 1013.3
20260506031003 10 0 0.0 0.0 0.00 1.14 0.00 90 1013.4
20260506030503 10 0 0.0 0.0 0.00 1.14 0.00 89 1013.3
20260506030003 10 0 0.0 0.0 0.00 1.14 0.00 89 1013.3
20260506025503 10 0 0.0 0.0 0.00 1.14 0.00 89 1013.3
20260506025003 10 0 0.0 0.0 0.00 1.14 0.00 89 1013.3
20260506024503 10 0 0.0 0.0 0.00 1.14 0.00 89 1013.4
20260506024003 10 0 0.0 0.0 0.00 1.14 0.00 89 1013.4
20260506023517 10 0 0.0 0.0 0.00 1.14 0.00 89 1013.4
20260506023003 10 0 0.0 0.0 0.00 1.14 0.00 89 1013.4
20260506022517 10 0 0.0 0.0 0.00 1.14 0.00 89 1013.5
20260506022003 10 0 0.0 0.0 0.00 1.14 0.00 89 1014.0
20260506021503 10 0 0.0 0.0 0.00 1.14 0.00 89 1013.4
20260506021003 10 0 0.0 0.0 0.00 1.14 0.00 89 1013.5
20260506020503 10 0 0.0 0.0 0.00 1.14 0.00 89 1013.4
20260506020003 10 0 0.0 0.0 0.00 1.14 0.00 89 1013.4
20260506015517 10 0 0.0 0.0 0.00 1.17 0.00 89 1013.5
20260506015003 10 0 0.0 0.0 0.00 1.17 0.00 89 1013.4
20260506014517 10 0 0.0 0.0 0.00 1.17 0.00 89 1013.6
20260506014017 10 0 0.0 0.0 0.00 1.17 0.00 89 1013.6
20260506013517 10 0 0.0 0.0 0.00 1.17 0.00 89 1013.5
20260506013003 10 0 0.0 0.0 0.00 1.17 0.00 89 1013.6
20260506012503 10 0 0.0 0.0 0.00 1.17 0.00 89 1013.6
20260506012017 10 0 0.0 0.0 0.00 1.17 0.00 89 1013.6
20260506011503 10 308 0.0 1.6 0.00 1.17 0.00 89 1013.6
20260506011003 10 308 0.0 3.2 0.00 1.17 0.00 89 1013.6
20260506010503 10 308 0.0 3.2 0.00 1.17 0.00 89 1013.7
20260506010003 10 306 0.0 3.2 0.00 1.17 0.00 89 1013.7
20260506005503 10 306 0.0 3.2 0.00 1.17 0.00 89 1013.9
20260506005003 10 306 0.0 4.8 0.00 1.17 0.00 89 1013.8
20260506004504 10 306 0.0 4.8 0.00 1.17 0.00 89 1013.8
20260506004017 10 307 1.6 4.8 0.00 1.17 0.00 89 1013.9
20260506003503 10 308 1.6 4.8 0.00 1.17 0.00 88 1014.0
20260506003003 10 308 1.6 4.8 0.00 1.17 0.00 89 1014.2
20260506002503 10 308 1.6 3.2 0.00 1.17 0.00 89 1014.1
20260506002003 10 308 1.6 4.8 0.00 1.17 0.00 89 1014.2
20260506001503 10 308 1.6 4.8 0.00 1.17 0.00 89 1014.1
20260506001017 10 307 1.6 4.8 0.00 1.17 0.00 89 1014.1
20260506000517 10 302 3.2 6.4 0.00 1.17 0.00 89 1014.1
20260506000003 10 294 1.6 6.4 0.00 1.17 0.00 89 1014.1
20260505235517 10 285 1.6 6.4 0.00 1.17 0.00 89 1014.1
20260505235003 10 289 3.2 6.4 0.00 1.17 0.00 89 1014.2
20260505234503 10 301 1.6 6.4 0.00 1.17 0.00 89 1014.3
20260505234017 10 322 0.0 3.2 0.00 1.17 0.00 90 1014.3
20260505233517 10 322 0.0 1.6 0.00 1.17 0.00 90 1014.3
20260505233003 10 0 0.0 0.0 0.00 1.17 0.00 89 1014.4
20260505232503 10 0 0.0 0.0 0.00 1.17 0.00 89 1014.3
20260505232003 10 0 0.0 0.0 0.00 1.17 0.00 89 1014.3
20260505231503 10 0 0.0 0.0 0.00 1.17 0.00 89 1014.3
20260505231017 10 322 0.0 1.6 0.00 1.17 0.00 89 1014.3
20260505230503 10 322 0.0 1.6 0.00 1.19 0.00 89 1014.2
20260505230003 10 322 0.0 1.6 0.00 1.22 0.00 89 1014.2
20260505225503 10 322 0.0 1.6 0.00 1.24 0.00 89 1014.2
20260505225003 10 319 0.0 1.6 0.00 1.24 0.00 89 1014.3
20260505224503 10 313 1.6 4.8 0.00 1.27 0.00 89 1014.3
20260505224017 10 313 1.6 4.8 0.00 1.27 0.00 89 1014.3
20260505223503 10 313 1.6 3.2 0.00 1.27 0.00 89 1014.3
20260505223003 10 313 0.0 3.2 0.00 1.27 0.00 89 1014.3
20260505222503 10 321 0.0 8.0 0.00 1.30 0.00 89 1014.4
20260505222003 10 325 0.0 8.0 0.00 1.32 0.00 89 1014.4
20260505221503 10 336 0.0 1.6 0.00 1.37 0.00 90 1014.5
20260505221003 10 336 0.0 3.2 0.00 1.45 0.00 90 1014.6
20260505220517 10 336 1.6 4.8 0.00 1.45 0.00 90 1014.5
20260505220003 10 305 3.2 6.4 0.00 1.45 0.00 90 1014.6
20260505215503 10 215 1.6 6.4 0.00 1.45 1.45 90 1014.8
20260505215003 10 179 0.0 3.2 0.00 1.45 1.45 89 1014.7
20260505214503 10 179 0.0 1.6 0.00 1.45 1.45 90 1014.7
20260505214003 10 178 0.0 3.2 0.00 1.45 1.45 89 1014.6
20260505213503 10 179 1.6 4.8 0.00 1.45 1.45 89 1014.6
20260505213017 10 179 1.6 6.4 0.00 1.45 1.45 89 1014.7
20260505212503 10 180 0.0 6.4 0.00 1.45 1.45 89 1014.7
20260505212003 10 0 0.0 0.0 0.00 1.45 1.45 88 1014.8
20260505211503 10 0 0.0 0.0 0.00 1.45 1.45 88 1014.8
20260505211003 10 0 0.0 0.0 0.00 1.45 1.45 88 1014.8
20260505210503 10 0 0.0 0.0 0.00 1.45 1.45 87 1014.8
20260505210003 10 0 0.0 0.0 0.00 1.45 1.45 87 1014.7
20260505205503 10 0 0.0 0.0 0.00 1.45 1.45 87 1014.7
20260505205003 10 0 0.0 0.0 0.00 1.47 1.45 87 1014.7
20260505204503 10 0 0.0 0.0 0.00 1.47 1.45 87 1014.8
20260505204003 10 297 0.0 1.6 0.00 1.47 1.45 87 1014.7
20260505203503 10 297 0.0 4.8 0.00 1.47 1.45 87 1014.7
20260505203003 11 297 1.6 4.8 0.00 1.47 1.45 87 1014.6
20260505202517 11 305 1.6 4.8 0.00 1.47 1.45 86 1014.7
20260505202003 11 324 1.6 4.8 0.00 1.52 1.45 86 1014.6
20260505201503 11 330 1.6 4.8 0.00 1.55 1.45 86 1014.7
20260505201017 11 328 1.6 9.7 0.00 1.55 1.45 86 1014.6
20260505200503 11 327 1.6 9.7 0.00 1.57 1.45 86 1014.5
20260505200003 11 326 1.6 6.4 0.00 1.57 1.45 86 1014.5
20260505195517 11 333 1.6 6.4 0.00 1.60 1.45 86 1014.5
20260505195017 11 155 1.6 6.4 0.00 1.63 1.45 86 1014.5
20260505194503 11 146 1.6 6.4 0.00 1.65 1.45 86 1014.5
20260505194003 11 327 1.6 6.4 0.00 1.65 1.45 86 1014.5
20260505193503 11 275 3.2 8.0 0.03 1.65 1.45 86 1014.3
20260505193003 11 195 3.2 8.0 0.03 1.65 1.45 86 1014.4
20260505192503 11 235 1.6 8.0 0.03 1.65 1.45 85 1014.4
20260505192003 12 316 1.6 8.0 0.03 1.68 1.45 86 1014.4
20260505191503 12 279 1.6 8.0 0.03 1.68 1.45 86 1014.3
20260505191003 12 308 1.6 8.0 0.03 1.68 1.45 86 1014.3
20260505190503 12 318 0.0 3.2 0.03 1.68 1.45 86 1014.3
20260505190003 12 317 0.0 3.2 0.03 1.68 1.45 86 1014.2
20260505185517 12 317 1.6 4.8 0.03 1.68 1.45 86 1014.1
20260505185003 12 317 0.0 4.8 0.03 1.68 1.45 86 1014.2
20260505184517 12 317 0.0 3.2 0.03 1.68 1.45 86 1014.1
20260505184003 12 317 0.0 1.6 0.03 1.68 1.45 86 1014.1
20260505183503 12 311 0.0 4.8 0.00 1.65 1.45 86 1014.1
20260505183003 12 306 0.0 4.8 0.00 1.65 1.45 86 1014.1
20260505182503 12 299 0.0 3.2 0.00 1.65 1.45 86 1014.0
20260505182003 12 299 0.0 3.2 0.00 1.65 1.45 85 1013.9
20260505181503 12 299 0.0 1.6 0.00 1.65 1.45 85 1013.9
20260505181003 12 299 1.6 6.4 0.00 1.65 1.45 85 1013.9
20260505180517 12 296 1.6 6.4 0.00 1.65 1.45 85 1013.9
20260505180003 12 265 1.6 6.4 0.00 1.65 1.45 85 1013.9
20260505175517 12 247 1.6 6.4 0.00 1.65 1.45 84 1013.8
20260505175003 12 204 1.6 4.8 0.00 1.65 1.45 85 1013.9
20260505174503 13 184 0.0 4.8 0.00 1.65 1.45 85 1013.9
20260505174003 13 0 0.0 0.0 0.00 1.65 1.45 85 1014.0
20260505173503 13 189 0.0 4.8 0.00 1.65 1.45 85 1014.0
20260505173003 13 189 0.0 4.8 0.00 1.65 1.45 85 1014.1
20260505172503 13 203 1.6 4.8 0.00 1.65 1.45 85 1014.0
20260505172003 12 209 1.6 4.8 0.00 1.65 1.45 84 1014.2
20260505171503 13 194 1.6 4.8 0.00 1.65 1.45 85 1014.2
20260505171003 13 165 1.6 6.4 0.00 1.65 1.45 85 1014.3
20260505170503 12 175 1.6 6.4 0.00 1.65 1.45 85 1014.3
20260505170003 13 208 3.2 9.7 0.00 1.65 1.45 84 1014.3
20260505165503 13 209 3.2 9.7 0.00 1.65 1.45 84 1014.3
20260505165003 13 167 3.2 8.0 0.00 1.65 1.45 85 1014.4
20260505164503 13 140 1.6 8.0 0.00 1.65 1.45 86 1014.3